Time,TemperatureF,DewpointF,PressureIn,WindDirection,WindDirectionDegrees,WindSpeedMPH,WindSpeedGustMPH,Humidity,HourlyPrecipIn,Conditions,Clouds,dailyrainin,SoftwareType,DateUTC
2013-01-19 00:03:00,50.0,11.5,29.76,WSW,247,8.9,8.9,21,0.00,,,0.00,LWC V2.10 B1813,2013-01-19 07:03:00,
2013-01-19 00:08:00,49.8,11.3,29.76,WSW,247,11.2,11.2,21,0.00,,,0.00,LWC V2.10 B1813,2013-01-19 07:08:00,
2013-01-19 00:14:00,49.3,10.9,29.77,WNW,292,3.8,6.5,21,0.00,,,0.00,LWC V2.10 B1813,2013-01-19 07:14:00,
2013-01-19 00:19:00,49.1,10.7,29.77,WNW,292,0.0,0.0,21,0.00,,,0.00,LWC V2.10 B1813,2013-01-19 07:19:00,
2013-01-19 00:24:00,49.1,10.7,29.77,WSW,247,3.8,3.8,21,0.00,,,0.00,LWC V2.10 B1813,2013-01-19 07:24:00,
2013-01-19 00:29:00,49.1,10.7,29.78,West,270,4.0,6.5,21,0.00,,,0.00,LWC V2.10 B1813,2013-01-19 07:29:00,
2013-01-19 00:34:00,48.9,10.5,29.77,WSW,247,11.2,11.2,21,0.00,,,0.00,LWC V2.10 B1813,2013-01-19 07:34:00,
2013-01-19 00:39:00,48.7,10.4,29.79,WSW,247,6.5,6.5,21,0.00,,,0.00,LWC V2.10 B1813,2013-01-19 07:39:00,
2013-01-19 00:44:00,48.4,10.0,29.79,SSE,157,0.0,7.4,21,0.00,,,0.00,LWC V2.10 B1813,2013-01-19 07:44:00,
2013-01-19 00:49:00,48.0,10.7,29.79,SSW,202,5.6,5.6,22,0.00,,,0.00,LWC V2.10 B1813,2013-01-19 07:49:00,
2013-01-19 00:54:00,47.8,10.2,29.79,West,270,0.0,0.0,22,0.00,,,0.00,LWC V2.10 B1813,2013-01-19 07:54:00,
2013-01-19 00:59:00,47.1,10.9,29.79,SW,225,3.4,5.8,23,0.00,,,0.00,LWC V2.10 B1813,2013-01-19 07:59:00,
2013-01-19 01:04:00,47.1,9.9,29.79,South,180,2.7,2.7,22,0.00,,,0.00,LWC V2.10 B1813,2013-01-19 08:04:00,
2013-01-19 01:09:00,47.3,9.9,29.80,WSW,247,6.7,6.7,22,0.00,,,0.00,LWC V2.10 B1813,2013-01-19 08:09:00,
2013-01-19 01:14:00,47.3,10.1,29.80,WSW,247,0.0,3.1,22,0.00,,,0.00,LWC V2.10 B1813,2013-01-19 08:14:00,
2013-01-19 01:19:00,46.9,10.7,29.80,SW,225,0.0,0.0,23,0.00,,,0.00,LWC V2.10 B1813,2013-01-19 08:19:00,
2013-01-19 01:24:00,46.0,10.1,29.79,SW,225,0.0,3.6,23,0.00,,,0.00,LWC V2.10 B1813,2013-01-19 08:24:00,
2013-01-19 01:29:00,45.7,9.7,29.79,SSW,202,4.2,4.2,23,0.00,,,0.00,LWC V2.10 B1813,2013-01-19 08:29:00,
2013-01-19 01:34:00,45.7,9.7,29.80,WNW,292,0.0,0.0,23,0.00,,,0.00,LWC V2.10 B1813,2013-01-19 08:34:00,
2013-01-19 01:39:00,45.5,9.4,29.80,West,270,0.0,0.0,23,0.00,,,0.00,LWC V2.10 B1813,2013-01-19 08:39:00,
2013-01-19 01:44:00,45.0,9.1,29.80,West,270,0.0,0.0,23,0.00,,,0.00,LWC V2.10 B1813,2013-01-19 08:44:00,
2013-01-19 01:49:00,44.2,8.5,29.80,SSW,202,5.1,5.1,23,0.00,,,0.00,LWC V2.10 B1813,2013-01-19 08:49:00,
2013-01-19 01:54:00,43.0,7.9,29.80,WNW,292,0.0,0.0,24,0.00,,,0.00,LWC V2.10 B1813,2013-01-19 08:54:00,
2013-01-19 01:59:00,42.1,7.5,29.81,West,270,0.0,0.0,24,0.00,,,0.00,LWC V2.10 B1813,2013-01-19 08:59:00,
2013-01-19 02:04:00,41.2,7.7,29.81,West,270,0.0,0.0,25,0.00,,,0.00,LWC V2.10 B1813,2013-01-19 09:04:00,
2013-01-19 02:09:00,39.9,7.0,29.81,WSW,247,0.0,0.0,26,0.00,,,0.00,LWC V2.10 B1813,2013-01-19 09:09:00,
2013-01-19 02:14:00,39.4,7.0,29.81,WSW,247,0.0,0.0,26,0.00,,,0.00,LWC V2.10 B1813,2013-01-19 09:14:00,
2013-01-19 02:19:00,39.4,7.0,29.81,WSW,247,0.0,0.0,26,0.00,,,0.00,LWC V2.10 B1813,2013-01-19 09:19:00,
2013-01-19 02:24:00,39.0,6.6,29.79,WSW,247,0.0,0.0,26,0.00,,,0.00,LWC V2.10 B1813,2013-01-19 09:24:00,
2013-01-19 02:29:00,38.5,7.1,29.80,WSW,247,0.0,0.0,27,0.00,,,0.00,LWC V2.10 B1813,2013-01-19 09:29:00,
2013-01-19 02:34:00,38.3,6.9,29.80,North,0,1.1,1.1,27,0.00,,,0.00,LWC V2.10 B1813,2013-01-19 09:34:00,
2013-01-19 02:39:00,38.5,7.1,29.80,North,0,0.0,0.0,27,0.00,,,0.00,LWC V2.10 B1813,2013-01-19 09:39:00,
2013-01-19 02:44:00,39.0,7.5,29.80,North,0,0.0,0.0,27,0.00,,,0.00,LWC V2.10 B1813,2013-01-19 09:44:00,
2013-01-19 02:49:00,39.4,7.9,29.79,North,0,0.0,0.0,27,0.00,,,0.00,LWC V2.10 B1813,2013-01-19 09:49:00,
2013-01-19 02:54:00,39.4,8.0,29.79,North,0,0.0,0.0,27,0.00,,,0.00,LWC V2.10 B1813,2013-01-19 09:54:00,
2013-01-19 02:59:00,39.0,7.5,29.80,SSE,157,0.0,0.0,27,0.00,,,0.00,LWC V2.10 B1813,2013-01-19 09:59:00,
2013-01-19 03:04:00,38.8,7.4,29.80,NNE,22,0.0,0.0,27,0.00,,,0.00,LWC V2.10 B1813,2013-01-19 10:04:00,
2013-01-19 03:09:00,38.5,7.1,29.80,ENE,67,0.0,0.0,27,0.00,,,0.00,LWC V2.10 B1813,2013-01-19 10:09:00,
2013-01-19 03:14:00,37.9,7.5,29.80,South,180,0.0,0.0,28,0.00,,,0.00,LWC V2.10 B1813,2013-01-19 10:14:00,
2013-01-19 03:19:00,38.1,7.6,29.80,South,180,0.0,0.0,28,0.00,,,0.00,LWC V2.10 B1813,2013-01-19 10:19:00,
2013-01-19 03:24:00,37.2,6.9,29.80,South,180,0.0,0.0,28,0.00,,,0.00,LWC V2.10 B1813,2013-01-19 10:24:00,
2013-01-19 03:29:00,36.7,6.4,29.81,WSW,247,0.0,0.0,28,0.00,,,0.00,LWC V2.10 B1813,2013-01-19 10:29:00,
2013-01-19 03:34:00,36.7,6.4,29.81,West,270,0.0,0.0,28,0.00,,,0.00,LWC V2.10 B1813,2013-01-19 10:34:00,
2013-01-19 03:39:00,36.0,6.6,29.80,SW,225,0.0,0.0,29,0.00,,,0.00,LWC V2.10 B1813,2013-01-19 10:39:00,
2013-01-19 03:44:00,35.2,6.0,29.80,West,270,0.0,0.0,29,0.00,,,0.00,LWC V2.10 B1813,2013-01-19 10:44:00,
2013-01-19 03:49:00,34.9,6.6,29.80,West,270,0.0,0.0,30,0.00,,,0.00,LWC V2.10 B1813,2013-01-19 10:49:00,
2013-01-19 03:54:00,34.5,6.3,29.80,SW,225,0.0,0.0,30,0.00,,,0.00,LWC V2.10 B1813,2013-01-19 10:54:00,
2013-01-19 03:59:00,34.5,6.3,29.81,SSW,202,0.0,0.0,30,0.00,,,0.00,LWC V2.10 B1813,2013-01-19 10:59:00,
2013-01-19 04:04:00,34.3,6.2,29.81,SSW,202,0.0,0.0,30,0.00,,,0.00,LWC V2.10 B1813,2013-01-19 11:04:00,
2013-01-19 04:09:00,34.7,7.1,29.81,WSW,247,0.0,0.0,31,0.00,,,0.00,LWC V2.10 B1813,2013-01-19 11:09:00,
2013-01-19 04:10:00,34.7,7.1,29.81,West,276,0.0,1.6,31,0.00,,,0.00,LWC V2.10 B1813,2013-01-19 11:10:00,
2013-01-19 04:14:00,34.5,6.9,29.80,SSW,202,0.0,0.0,31,0.00,,,0.00,LWC V2.10 B1813,2013-01-19 11:14:00,
2013-01-19 04:20:00,35.2,6.9,29.81,WSW,249,2.5,4.7,30,0.00,,,0.00,LWC V2.10 B1813,2013-01-19 11:20:00,
2013-01-19 04:30:00,35.8,7.3,29.82,NW,316,0.0,4.7,30,0.00,,,0.00,LWC V2.10 B1813,2013-01-19 11:30:00,
2013-01-19 04:40:00,35.2,7.3,29.82,West,268,0.0,4.7,30,0.00,,,0.00,LWC V2.10 B1813,2013-01-19 11:40:00,
2013-01-19 04:50:00,34.9,7.2,29.81,West,270,0.0,0.0,31,0.00,,,0.00,LWC V2.10 B1813,2013-01-19 11:50:00,
2013-01-19 05:00:00,34.3,6.8,29.82,WNW,299,1.6,1.8,31,0.00,,,0.00,LWC V2.10 B1813,2013-01-19 12:00:00,
2013-01-19 05:10:00,33.8,6.8,29.82,WSW,249,0.0,1.8,31,0.00,,,0.00,LWC V2.10 B1813,2013-01-19 12:10:00,
2013-01-19 05:20:00,32.4,5.8,29.83,WSW,247,0.0,1.8,32,0.00,,,0.00,LWC V2.10 B1813,2013-01-19 12:20:00,
2013-01-19 05:30:00,30.7,6.0,29.84,WSW,247,0.0,1.8,34,0.00,,,0.00,LWC V2.10 B1813,2013-01-19 12:30:00,
2013-01-19 05:48:00,27.7,4.0,29.84,WSW,247,0.0,0.0,36,0.00,,,0.00,LWC V2.10 B1813,2013-01-19 12:48:00,
2013-01-19 05:53:00,27.5,4.0,29.84,WSW,247,0.0,0.0,36,0.00,,,0.00,LWC V2.10 B1813,2013-01-19 12:53:00,
2013-01-19 05:57:00,27.1,3.5,29.85,WSW,247,0.0,0.0,36,0.00,,,0.00,LWC V2.10 B1813,2013-01-19 12:57:00,
2013-01-19 06:02:00,26.8,3.8,29.85,WSW,247,0.0,0.0,37,0.00,,,0.00,LWC V2.10 B1813,2013-01-19 13:02:00,
2013-01-19 06:07:00,26.4,4.7,29.85,WSW,247,0.0,0.0,39,0.00,,,0.00,LWC V2.10 B1813,2013-01-19 13:07:00,
2013-01-19 06:12:00,25.9,4.3,29.86,WSW,247,0.0,0.0,39,0.00,,,0.00,LWC V2.10 B1813,2013-01-19 13:12:00,
2013-01-19 06:17:00,25.9,4.3,29.86,WSW,247,0.0,0.0,39,0.00,,,0.00,LWC V2.10 B1813,2013-01-19 13:17:00,
2013-01-19 06:22:00,25.7,4.1,29.86,WSW,247,0.0,0.0,39,0.00,,,0.00,LWC V2.10 B1813,2013-01-19 13:22:00,
2013-01-19 06:27:00,25.5,3.9,29.86,WSW,247,0.0,0.0,39,0.00,,,0.00,LWC V2.10 B1813,2013-01-19 13:27:00,
2013-01-19 06:32:00,25.7,4.1,29.86,WSW,247,0.0,0.0,39,0.00,,,0.00,LWC V2.10 B1813,2013-01-19 13:32:00,
2013-01-19 06:37:00,26.2,4.6,29.86,WSW,247,0.0,0.0,39,0.00,,,0.00,LWC V2.10 B1813,2013-01-19 13:37:00,
2013-01-19 06:42:00,26.4,4.7,29.86,SW,225,0.0,0.0,39,0.00,,,0.00,LWC V2.10 B1813,2013-01-19 13:42:00,
2013-01-19 06:47:00,26.2,4.6,29.87,WSW,247,0.0,0.0,39,0.00,,,0.00,LWC V2.10 B1813,2013-01-19 13:47:00,
2013-01-19 06:52:00,26.2,4.6,29.87,WSW,247,0.0,0.0,39,0.00,,,0.00,LWC V2.10 B1813,2013-01-19 13:52:00,
2013-01-19 06:57:00,26.8,5.1,29.87,WSW,247,0.0,0.0,39,0.00,,,0.00,LWC V2.10 B1813,2013-01-19 13:57:00,
2013-01-19 07:02:00,27.3,4.9,29.86,WSW,247,0.0,0.0,38,0.00,,,0.00,LWC V2.10 B1813,2013-01-19 14:02:00,
2013-01-19 07:07:00,28.2,5.7,29.87,WSW,247,0.0,0.0,38,0.00,,,0.00,LWC V2.10 B1813,2013-01-19 14:07:00,
2013-01-19 07:12:00,29.1,5.9,29.87,WNW,292,3.4,3.4,37,0.00,,,0.00,LWC V2.10 B1813,2013-01-19 14:12:00,
2013-01-19 07:17:00,29.7,6.4,29.88,West,270,0.0,0.0,37,0.00,,,0.00,LWC V2.10 B1813,2013-01-19 14:17:00,
2013-01-19 07:22:00,29.5,5.6,29.88,WSW,247,0.0,0.0,36,0.00,,,0.00,LWC V2.10 B1813,2013-01-19 14:22:00,
2013-01-19 07:27:00,29.1,5.3,29.88,WSW,247,0.0,0.0,36,0.00,,,0.00,LWC V2.10 B1813,2013-01-19 14:27:00,
2013-01-19 07:32:00,28.8,5.6,29.88,WSW,247,0.0,0.0,37,0.00,,,0.00,LWC V2.10 B1813,2013-01-19 14:32:00,
2013-01-19 07:37:00,28.2,5.1,29.88,WSW,247,0.0,0.0,37,0.00,,,0.00,LWC V2.10 B1813,2013-01-19 14:37:00,
2013-01-19 07:40:00,28.2,5.1,29.88,West,270,0.0,0.0,37,0.00,,,0.00,LWC V2.10 B1813,2013-01-19 14:40:00,
2013-01-19 07:45:00,27.7,4.6,29.88,WSW,247,0.0,0.0,37,0.00,,,0.00,LWC V2.10 B1813,2013-01-19 14:45:00,
2013-01-19 07:50:00,27.3,4.9,29.88,WSW,247,0.0,0.0,38,0.00,,,0.00,LWC V2.10 B1813,2013-01-19 14:50:00,
2013-01-19 07:55:00,27.3,4.8,29.88,WSW,247,0.0,0.0,38,0.00,,,0.00,LWC V2.10 B1813,2013-01-19 14:55:00,
2013-01-19 08:00:00,26.8,5.1,29.89,WSW,247,0.0,0.0,39,0.00,,,0.00,LWC V2.10 B1813,2013-01-19 15:00:00,
2013-01-19 08:05:00,27.0,5.2,29.89,WSW,247,0.0,0.0,39,0.00,,,0.00,LWC V2.10 B1813,2013-01-19 15:05:00,
2013-01-19 08:10:00,27.1,5.4,29.89,WSW,247,0.0,0.0,39,0.00,,,0.00,LWC V2.10 B1813,2013-01-19 15:10:00,
2013-01-19 08:15:00,28.2,5.7,29.89,WSW,247,0.0,0.0,38,0.00,,,0.00,LWC V2.10 B1813,2013-01-19 15:15:00,
2013-01-19 08:20:00,29.1,6.5,29.89,WSW,247,0.0,0.0,38,0.00,,,0.00,LWC V2.10 B1813,2013-01-19 15:20:00,
2013-01-19 08:25:00,29.7,7.4,29.89,WSW,247,0.0,0.0,38,0.00,,,0.00,LWC V2.10 B1813,2013-01-19 15:25:00,
2013-01-19 08:30:00,30.9,8.2,29.89,WSW,247,0.0,0.0,38,0.00,,,0.00,LWC V2.10 B1813,2013-01-19 15:30:00,
2013-01-19 08:35:00,31.8,8.3,29.89,WSW,247,0.0,0.0,37,0.00,,,0.00,LWC V2.10 B1813,2013-01-19 15:35:00,
2013-01-19 08:40:00,32.5,8.4,29.89,WSW,247,0.0,0.0,36,0.00,,,0.00,LWC V2.10 B1813,2013-01-19 15:40:00,
2013-01-19 08:45:00,33.4,9.2,29.89,WSW,247,0.0,0.0,36,0.00,,,0.00,LWC V2.10 B1813,2013-01-19 15:45:00,
2013-01-19 08:50:00,34.9,10.4,29.90,WSW,247,0.0,0.0,36,0.00,,,0.00,LWC V2.10 B1813,2013-01-19 15:50:00,
2013-01-19 08:55:00,35.8,10.6,29.90,WSW,247,0.0,0.0,35,0.00,,,0.00,LWC V2.10 B1813,2013-01-19 15:55:00,
2013-01-19 09:00:00,37.2,11.2,29.90,WSW,247,0.0,0.0,34,0.00,,,0.00,LWC V2.10 B1813,2013-01-19 16:00:00,
2013-01-19 09:05:00,38.1,12.0,29.90,WSW,247,0.0,0.0,34,0.00,,,0.00,LWC V2.10 B1813,2013-01-19 16:05:00,
2013-01-19 09:10:00,39.4,12.5,29.90,WSW,247,0.0,0.0,33,0.00,,,0.00,LWC V2.10 B1813,2013-01-19 16:10:00,
2013-01-19 09:15:00,40.1,13.2,29.90,WSW,247,0.0,0.0,33,0.00,,,0.00,LWC V2.10 B1813,2013-01-19 16:15:00,
2013-01-19 09:20:00,41.4,13.6,29.91,WSW,247,0.0,0.0,32,0.00,,,0.00,LWC V2.10 B1813,2013-01-19 16:20:00,
2013-01-19 09:25:00,42.6,14.0,29.91,WSW,247,0.0,0.0,31,0.00,,,0.00,LWC V2.10 B1813,2013-01-19 16:25:00,
2013-01-19 09:30:00,43.7,14.9,29.91,WSW,247,0.0,0.0,31,0.00,,,0.00,LWC V2.10 B1813,2013-01-19 16:30:00,
2013-01-19 09:35:00,45.1,15.6,29.91,WSW,247,0.0,0.0,30,0.00,,,0.00,LWC V2.10 B1813,2013-01-19 16:35:00,
2013-01-19 09:40:00,46.8,15.6,29.91,WSW,247,0.0,0.0,29,0.00,,,0.00,LWC V2.10 B1813,2013-01-19 16:40:00,
2013-01-19 09:45:00,47.8,16.1,29.91,WSW,247,0.0,0.0,28,0.00,,,0.00,LWC V2.10 B1813,2013-01-19 16:45:00,
2013-01-19 09:50:00,48.0,16.3,29.91,WSW,247,0.0,0.0,28,0.00,,,0.00,LWC V2.10 B1813,2013-01-19 16:50:00,
2013-01-19 09:55:00,50.0,17.0,29.91,WSW,247,0.0,0.0,27,0.00,,,0.00,LWC V2.10 B1813,2013-01-19 16:55:00,
2013-01-19 10:00:00,50.9,17.8,29.91,SSE,157,5.4,5.4,27,0.00,,,0.00,LWC V2.10 B1813,2013-01-19 17:00:00,
2013-01-19 10:05:00,50.9,17.8,29.92,SSE,157,6.0,6.0,27,0.00,,,0.00,LWC V2.10 B1813,2013-01-19 17:05:00,
2013-01-19 10:10:00,50.2,17.1,29.92,SSE,157,0.0,2.0,27,0.00,,,0.00,LWC V2.10 B1813,2013-01-19 17:10:00,
2013-01-19 10:15:00,50.9,16.9,29.92,SSE,157,0.0,6.0,26,0.00,,,0.00,LWC V2.10 B1813,2013-01-19 17:15:00,
2013-01-19 10:20:00,51.4,16.4,29.92,SSE,157,0.0,0.0,25,0.00,,,0.00,LWC V2.10 B1813,2013-01-19 17:20:00,
2013-01-19 10:25:00,50.9,15.0,29.92,ESE,112,0.0,0.0,24,0.00,,,0.00,LWC V2.10 B1813,2013-01-19 17:25:00,
2013-01-19 10:30:00,51.8,15.8,29.92,SSE,157,0.0,2.0,24,0.00,,,0.00,LWC V2.10 B1813,2013-01-19 17:30:00,
2013-01-19 10:35:00,52.7,16.5,29.92,SSE,157,3.8,3.8,24,0.00,,,0.00,LWC V2.10 B1813,2013-01-19 17:35:00,
2013-01-19 10:40:00,52.3,15.3,29.92,SE,135,0.0,0.0,23,0.00,,,0.00,LWC V2.10 B1813,2013-01-19 17:40:00,
2013-01-19 10:45:00,52.7,15.6,29.92,East,90,0.0,0.0,23,0.00,,,0.00,LWC V2.10 B1813,2013-01-19 17:45:00,
2013-01-19 10:50:00,52.9,15.7,29.91,East,90,0.0,0.0,23,0.00,,,0.00,LWC V2.10 B1813,2013-01-19 17:50:00,
2013-01-19 10:55:00,53.2,14.8,29.91,NE,45,1.6,1.6,23,0.00,,,0.00,LWC V2.10 B1813,2013-01-19 17:55:00,
2013-01-19 11:00:00,53.8,15.5,29.91,NE,45,0.0,0.0,22,0.00,,,0.00,LWC V2.10 B1813,2013-01-19 18:00:00,
2013-01-19 11:05:00,53.8,15.5,29.91,NE,45,0.0,0.0,22,0.00,,,0.00,LWC V2.10 B1813,2013-01-19 18:05:00,
2013-01-19 11:10:00,54.3,16.0,29.91,ESE,112,0.0,0.0,22,0.00,,,0.00,LWC V2.10 B1813,2013-01-19 18:10:00,
2013-01-19 11:15:00,55.9,17.4,29.91,South,180,3.4,3.4,22,0.00,,,0.00,LWC V2.10 B1813,2013-01-19 18:15:00,
2013-01-19 11:20:00,56.8,17.2,29.90,SSE,157,4.0,4.0,21,0.00,,,0.00,LWC V2.10 B1813,2013-01-19 18:20:00,
2013-01-19 11:25:00,57.4,17.6,29.90,SSE,157,0.0,0.0,21,0.00,,,0.00,LWC V2.10 B1813,2013-01-19 18:25:00,
2013-01-19 11:30:00,57.4,17.6,29.90,SSE,157,7.2,7.2,21,0.00,,,0.00,LWC V2.10 B1813,2013-01-19 18:30:00,
2013-01-19 11:35:00,57.6,17.8,29.89,SSE,157,6.3,6.3,21,0.00,,,0.00,LWC V2.10 B1813,2013-01-19 18:35:00,
2013-01-19 11:40:00,56.5,16.9,29.90,SE,135,0.0,2.0,21,0.00,,,0.00,LWC V2.10 B1813,2013-01-19 18:40:00,
2013-01-19 11:45:00,55.9,16.4,29.90,SE,135,4.9,4.9,21,0.00,,,0.00,LWC V2.10 B1813,2013-01-19 18:45:00,
2013-01-19 11:50:00,56.3,17.7,29.89,SSE,157,0.0,0.0,22,0.00,,,0.00,LWC V2.10 B1813,2013-01-19 18:50:00,
2013-01-19 11:55:00,56.7,18.0,29.89,South,180,0.0,0.0,22,0.00,,,0.00,LWC V2.10 B1813,2013-01-19 18:55:00,
2013-01-19 12:00:00,56.5,17.8,29.89,SSE,157,1.6,1.6,22,0.00,,,0.00,LWC V2.10 B1813,2013-01-19 19:00:00,
2013-01-19 12:05:00,55.9,17.4,29.89,SSE,157,4.2,4.2,22,0.00,,,0.00,LWC V2.10 B1813,2013-01-19 19:05:00,
2013-01-19 12:10:00,55.2,16.8,29.89,ESE,112,0.0,4.0,22,0.00,,,0.00,LWC V2.10 B1813,2013-01-19 19:10:00,
2013-01-19 12:15:00,55.2,16.8,29.88,SSE,157,0.0,0.0,22,0.00,,,0.00,LWC V2.10 B1813,2013-01-19 19:15:00,
2013-01-19 12:20:00,54.7,16.3,29.87,NE,45,0.0,0.0,22,0.00,,,0.00,LWC V2.10 B1813,2013-01-19 19:20:00,
2013-01-19 12:25:00,55.4,17.0,29.87,SSE,157,0.0,4.5,22,0.00,,,0.00,LWC V2.10 B1813,2013-01-19 19:25:00,
2013-01-19 12:30:00,55.6,17.1,29.87,NE,45,4.2,4.2,22,0.00,,,0.00,LWC V2.10 B1813,2013-01-19 19:30:00,
2013-01-19 12:35:00,55.8,17.2,29.87,NE,45,0.0,0.0,22,0.00,,,0.00,LWC V2.10 B1813,2013-01-19 19:35:00,
2013-01-19 12:40:00,55.8,17.2,29.86,NE,45,0.0,4.5,22,0.00,,,0.00,LWC V2.10 B1813,2013-01-19 19:40:00,
2013-01-19 12:45:00,56.5,17.8,29.86,West,270,0.0,0.0,22,0.00,,,0.00,LWC V2.10 B1813,2013-01-19 19:45:00,
2013-01-19 12:50:00,57.0,17.3,29.86,NE,45,3.1,3.1,21,0.00,,,0.00,LWC V2.10 B1813,2013-01-19 19:50:00,
2013-01-19 12:55:00,56.8,17.2,29.86,ENE,67,0.0,0.0,21,0.00,,,0.00,LWC V2.10 B1813,2013-01-19 19:55:00,
2013-01-19 13:00:00,58.1,18.2,29.86,NNE,22,3.8,3.8,21,0.00,,,0.00,LWC V2.10 B1813,2013-01-19 20:00:00,
2013-01-19 13:05:00,58.6,18.6,29.86,SE,135,0.0,0.0,21,0.00,,,0.00,LWC V2.10 B1813,2013-01-19 20:05:00,
2013-01-19 13:10:00,58.6,18.6,29.85,SSE,157,0.0,0.0,21,0.00,,,0.00,LWC V2.10 B1813,2013-01-19 20:10:00,
2013-01-19 13:15:00,58.8,17.8,29.85,NE,45,0.0,0.0,20,0.00,,,0.00,LWC V2.10 B1813,2013-01-19 20:15:00,
2013-01-19 13:20:00,58.8,17.8,29.85,SSE,157,1.8,1.8,20,0.00,,,0.00,LWC V2.10 B1813,2013-01-19 20:20:00,
2013-01-19 13:26:00,60.6,19.4,29.85,SSE,157,0.0,0.0,20,0.00,,,0.00,LWC V2.10 B1813,2013-01-19 20:26:00,
2013-01-19 13:31:00,60.4,19.3,29.85,SE,135,0.0,0.0,20,0.00,,,0.00,LWC V2.10 B1813,2013-01-19 20:31:00,
2013-01-19 13:36:00,61.3,18.4,29.85,ENE,67,0.0,0.0,19,0.00,,,0.00,LWC V2.10 B1813,2013-01-19 20:36:00,
2013-01-19 13:41:00,61.9,18.9,29.85,SE,135,0.0,0.0,19,0.00,,,0.00,LWC V2.10 B1813,2013-01-19 20:41:00,
2013-01-19 13:46:00,61.5,18.6,29.85,SSW,202,4.0,4.0,19,0.00,,,0.00,LWC V2.10 B1813,2013-01-19 20:46:00,
2013-01-19 13:51:00,62.4,19.3,29.85,South,180,0.0,0.0,19,0.00,,,0.00,LWC V2.10 B1813,2013-01-19 20:51:00,
2013-01-19 13:56:00,63.0,19.7,29.85,South,180,0.0,0.0,19,0.00,,,0.00,LWC V2.10 B1813,2013-01-19 20:56:00,
2013-01-19 14:01:00,63.5,20.2,29.85,South,180,0.0,0.0,19,0.00,,,0.00,LWC V2.10 B1813,2013-01-19 21:01:00,
2013-01-19 14:06:00,63.3,18.4,29.85,ESE,112,0.0,0.0,18,0.00,,,0.00,LWC V2.10 B1813,2013-01-19 21:06:00,
2013-01-19 14:11:00,61.5,17.0,29.85,NE,45,0.0,4.0,18,0.00,,,0.00,LWC V2.10 B1813,2013-01-19 21:11:00,
2013-01-19 14:16:00,61.5,17.0,29.84,SE,135,0.0,0.0,18,0.00,,,0.00,LWC V2.10 B1813,2013-01-19 21:16:00,
2013-01-19 14:21:00,61.2,16.7,29.84,SW,225,0.0,0.0,18,0.00,,,0.00,LWC V2.10 B1813,2013-01-19 21:21:00,
2013-01-19 14:26:00,62.4,17.7,29.84,SW,225,0.0,0.0,18,0.00,,,0.00,LWC V2.10 B1813,2013-01-19 21:26:00,
2013-01-19 14:31:00,63.3,18.4,29.84,SW,225,0.0,0.0,18,0.00,,,0.00,LWC V2.10 B1813,2013-01-19 21:31:00,
2013-01-19 14:36:00,63.9,18.9,29.84,WSW,247,0.0,0.0,18,0.00,,,0.00,LWC V2.10 B1813,2013-01-19 21:36:00,
2013-01-19 14:41:00,63.9,18.9,29.84,SW,225,0.0,0.0,18,0.00,,,0.00,LWC V2.10 B1813,2013-01-19 21:41:00,
2013-01-19 14:46:00,63.1,18.3,29.84,WSW,247,0.0,0.0,18,0.00,,,0.00,LWC V2.10 B1813,2013-01-19 21:46:00,
2013-01-19 14:51:00,63.1,18.3,29.83,WSW,247,0.0,0.0,18,0.00,,,0.00,LWC V2.10 B1813,2013-01-19 21:51:00,
2013-01-19 14:56:00,62.4,17.7,29.83,WSW,247,0.0,0.0,18,0.00,,,0.00,LWC V2.10 B1813,2013-01-19 21:56:00,
2013-01-19 15:01:00,62.6,17.9,29.84,WSW,247,0.0,0.0,18,0.00,,,0.00,LWC V2.10 B1813,2013-01-19 22:01:00,
2013-01-19 15:06:00,63.0,16.2,29.83,WSW,247,0.0,0.0,17,0.00,,,0.00,LWC V2.10 B1813,2013-01-19 22:06:00,
2013-01-19 15:11:00,62.1,17.5,29.84,WSW,247,0.0,0.0,18,0.00,,,0.00,LWC V2.10 B1813,2013-01-19 22:11:00,
2013-01-19 15:16:00,62.1,17.5,29.84,WSW,247,0.0,0.0,18,0.00,,,0.00,LWC V2.10 B1813,2013-01-19 22:16:00,
2013-01-19 15:21:00,62.4,17.7,29.84,WSW,247,0.0,0.0,18,0.00,,,0.00,LWC V2.10 B1813,2013-01-19 22:21:00,
2013-01-19 15:26:00,62.8,18.0,29.84,WSW,247,0.0,0.0,18,0.00,,,0.00,LWC V2.10 B1813,2013-01-19 22:26:00,
2013-01-19 15:31:00,62.8,18.0,29.84,WSW,247,0.0,0.0,18,0.00,,,0.00,LWC V2.10 B1813,2013-01-19 22:31:00,
2013-01-19 15:36:00,62.4,17.7,29.84,WSW,247,0.0,0.0,18,0.00,,,0.00,LWC V2.10 B1813,2013-01-19 22:36:00,
2013-01-19 15:41:00,62.2,17.6,29.85,WSW,247,0.0,0.0,18,0.00,,,0.00,LWC V2.10 B1813,2013-01-19 22:41:00,
2013-01-19 15:46:00,61.9,17.3,29.85,WSW,247,0.0,0.0,18,0.00,,,0.00,LWC V2.10 B1813,2013-01-19 22:46:00,
2013-01-19 15:51:00,61.3,16.9,29.86,WSW,247,0.0,0.0,18,0.00,,,0.00,LWC V2.10 B1813,2013-01-19 22:51:00,
2013-01-19 15:56:00,60.6,16.3,29.85,WSW,247,0.0,0.0,18,0.00,,,0.00,LWC V2.10 B1813,2013-01-19 22:56:00,
2013-01-19 16:01:00,59.2,16.6,29.85,WSW,247,0.0,0.0,19,0.00,,,0.00,LWC V2.10 B1813,2013-01-19 23:01:00,
2013-01-19 16:06:00,58.8,14.7,29.86,East,90,0.0,0.0,18,0.00,,,0.00,LWC V2.10 B1813,2013-01-19 23:06:00,
2013-01-19 16:11:00,57.4,15.1,29.86,ENE,67,0.0,0.0,19,0.00,,,0.00,LWC V2.10 B1813,2013-01-19 23:11:00,
2013-01-19 16:17:00,56.1,14.1,29.86,NE,45,0.0,0.0,19,0.00,,,0.00,LWC V2.10 B1813,2013-01-19 23:17:00,
2013-01-19 16:22:00,55.6,13.7,29.85,NE,45,0.0,0.0,19,0.00,,,0.00,LWC V2.10 B1813,2013-01-19 23:22:00,
2013-01-19 16:27:00,53.8,13.6,29.86,SSW,202,0.0,0.0,20,0.00,,,0.00,LWC V2.10 B1813,2013-01-19 23:27:00,
2013-01-19 16:32:00,52.5,13.5,29.86,SSW,202,0.0,0.0,21,0.00,,,0.00,LWC V2.10 B1813,2013-01-19 23:32:00,
2013-01-19 16:37:00,51.6,12.8,29.86,SSW,202,0.0,0.0,21,0.00,,,0.00,LWC V2.10 B1813,2013-01-19 23:37:00,
2013-01-19 16:42:00,49.6,12.1,29.86,SSW,202,0.0,0.0,22,0.00,,,0.00,LWC V2.10 B1813,2013-01-19 23:42:00,
2013-01-19 16:47:00,48.9,11.5,29.86,SSW,202,0.0,0.0,22,0.00,,,0.00,LWC V2.10 B1813,2013-01-19 23:47:00,
2013-01-19 16:52:00,48.0,10.7,29.87,SSW,202,0.0,0.0,22,0.00,,,0.00,LWC V2.10 B1813,2013-01-19 23:52:00,
2013-01-19 16:58:00,48.6,10.2,29.86,SSW,202,0.0,0.0,21,0.00,,,0.00,LWC V2.10 B1813,2013-01-19 23:58:00,
2013-01-19 17:03:00,48.0,9.7,29.87,SSW,202,0.0,0.0,21,0.00,,,0.00,LWC V2.10 B1813,2013-01-20 00:03:00,
2013-01-19 17:08:00,48.0,9.7,29.86,SSW,202,2.9,4.9,21,0.00,,,0.00,LWC V2.10 B1813,2013-01-20 00:08:00,
2013-01-19 17:13:00,48.7,10.4,29.87,SSW,202,4.9,4.9,21,0.00,,,0.00,LWC V2.10 B1813,2013-01-20 00:13:00,
2013-01-19 17:18:00,47.8,9.6,29.86,SSW,202,0.0,0.0,21,0.00,,,0.00,LWC V2.10 B1813,2013-01-20 00:18:00,
2013-01-19 17:23:00,46.2,10.1,29.86,SSW,202,0.0,0.0,23,0.00,,,0.00,LWC V2.10 B1813,2013-01-20 00:23:00,
2013-01-19 17:28:00,45.0,9.1,29.86,SSW,202,0.0,0.0,23,0.00,,,0.00,LWC V2.10 B1813,2013-01-20 00:28:00,
2013-01-19 17:33:00,43.7,8.9,29.86,SSW,202,0.0,0.0,24,0.00,,,0.00,LWC V2.10 B1813,2013-01-20 00:33:00,
2013-01-19 17:38:00,42.4,7.8,29.86,SSW,202,0.0,0.0,24,0.00,,,0.00,LWC V2.10 B1813,2013-01-20 00:38:00,
2013-01-19 17:43:00,41.5,8.0,29.86,SSW,202,0.0,0.0,25,0.00,,,0.00,LWC V2.10 B1813,2013-01-20 00:43:00,
2013-01-19 17:48:00,40.6,8.1,29.86,SSW,202,0.0,0.0,26,0.00,,,0.00,LWC V2.10 B1813,2013-01-20 00:48:00,
2013-01-19 17:53:00,38.7,6.3,29.87,SSW,202,0.0,0.0,26,0.00,,,0.00,LWC V2.10 B1813,2013-01-20 00:53:00,
2013-01-19 17:58:00,37.9,5.7,29.87,SSW,202,0.0,0.0,26,0.00,,,0.00,LWC V2.10 B1813,2013-01-20 00:58:00,
2013-01-19 18:03:00,37.8,5.6,29.87,SSW,202,0.0,0.0,26,0.00,,,0.00,LWC V2.10 B1813,2013-01-20 01:03:00,
2013-01-19 18:08:00,36.5,5.3,29.87,SSW,202,0.0,0.0,27,0.00,,,0.00,LWC V2.10 B1813,2013-01-20 01:08:00,
2013-01-19 18:13:00,35.8,4.7,29.87,SSW,202,0.0,0.0,27,0.00,,,0.00,LWC V2.10 B1813,2013-01-20 01:13:00,
2013-01-19 18:18:00,35.2,4.3,29.87,SSW,202,0.0,0.0,27,0.00,,,0.00,LWC V2.10 B1813,2013-01-20 01:18:00,
2013-01-19 18:23:00,34.3,4.4,29.87,SSW,202,0.0,0.0,28,0.00,,,0.00,LWC V2.10 B1813,2013-01-20 01:23:00,
2013-01-19 18:28:00,33.8,4.8,29.87,SSW,202,0.0,0.0,29,0.00,,,0.00,LWC V2.10 B1813,2013-01-20 01:28:00,
2013-01-19 18:33:00,33.6,4.7,29.87,SSW,202,0.0,0.0,29,0.00,,,0.00,LWC V2.10 B1813,2013-01-20 01:33:00,
2013-01-19 18:38:00,33.6,5.6,29.86,NNE,22,0.0,0.0,30,0.00,,,0.00,LWC V2.10 B1813,2013-01-20 01:38:00,
2013-01-19 18:43:00,34.9,5.7,29.87,NNE,22,0.0,0.0,29,0.00,,,0.00,LWC V2.10 B1813,2013-01-20 01:43:00,
2013-01-19 18:48:00,36.3,6.9,29.86,NW,315,0.0,0.0,29,0.00,,,0.00,LWC V2.10 B1813,2013-01-20 01:48:00,
2013-01-19 18:53:00,39.9,7.4,29.87,NW,315,0.0,1.8,26,0.00,,,0.00,LWC V2.10 B1813,2013-01-20 01:53:00,
2013-01-19 18:58:00,41.5,8.0,29.87,NW,315,0.0,0.0,25,0.00,,,0.00,LWC V2.10 B1813,2013-01-20 01:58:00,
2013-01-19 19:03:00,42.1,8.4,29.87,WNW,292,0.0,0.0,25,0.00,,,0.00,LWC V2.10 B1813,2013-01-20 02:03:00,
2013-01-19 19:08:00,42.4,7.8,29.87,West,270,0.0,0.0,24,0.00,,,0.00,LWC V2.10 B1813,2013-01-20 02:08:00,
2013-01-19 19:13:00,42.4,7.8,29.87,West,270,0.0,0.0,24,0.00,,,0.00,LWC V2.10 B1813,2013-01-20 02:13:00,
2013-01-19 19:18:00,42.1,7.5,29.87,West,270,0.0,0.0,24,0.00,,,0.00,LWC V2.10 B1813,2013-01-20 02:18:00,
2013-01-19 19:23:00,41.5,7.1,29.87,West,270,0.0,0.0,24,0.00,,,0.00,LWC V2.10 B1813,2013-01-20 02:23:00,
2013-01-19 19:28:00,40.8,7.4,29.87,West,270,0.0,0.0,25,0.00,,,0.00,LWC V2.10 B1813,2013-01-20 02:28:00,
2013-01-19 19:33:00,39.6,6.7,29.87,West,270,0.0,0.0,25,0.00,,,0.00,LWC V2.10 B1813,2013-01-20 02:33:00,
2013-01-19 19:38:00,39.4,6.1,29.87,West,270,0.0,0.0,25,0.00,,,0.00,LWC V2.10 B1813,2013-01-20 02:38:00,
2013-01-19 19:43:00,38.5,6.2,29.87,West,270,0.0,0.0,26,0.00,,,0.00,LWC V2.10 B1813,2013-01-20 02:43:00,
2013-01-19 19:48:00,37.0,5.1,29.87,West,270,0.0,0.0,26,0.00,,,0.00,LWC V2.10 B1813,2013-01-20 02:48:00,
2013-01-19 19:53:00,36.0,4.9,29.87,West,270,0.0,0.0,27,0.00,,,0.00,LWC V2.10 B1813,2013-01-20 02:53:00,
2013-01-19 19:58:00,34.7,3.8,29.87,West,270,0.0,0.0,27,0.00,,,0.00,LWC V2.10 B1813,2013-01-20 02:58:00,
2013-01-19 20:03:00,34.0,4.1,29.87,West,270,0.0,0.0,28,0.00,,,0.00,LWC V2.10 B1813,2013-01-20 03:03:00,
2013-01-19 20:08:00,33.4,3.6,29.87,West,270,0.0,0.0,28,0.00,,,0.00,LWC V2.10 B1813,2013-01-20 03:08:00,
2013-01-19 20:13:00,32.9,4.0,29.87,West,270,0.0,0.0,29,0.00,,,0.00,LWC V2.10 B1813,2013-01-20 03:13:00,
2013-01-19 20:18:00,32.0,4.1,29.87,West,270,0.0,0.0,30,0.00,,,0.00,LWC V2.10 B1813,2013-01-20 03:18:00,
2013-01-19 20:23:00,32.2,4.9,29.87,West,270,0.0,0.0,31,0.00,,,0.00,LWC V2.10 B1813,2013-01-20 03:23:00,
2013-01-19 20:28:00,31.8,4.6,29.87,West,270,0.0,0.0,31,0.00,,,0.00,LWC V2.10 B1813,2013-01-20 03:28:00,
2013-01-19 20:34:00,31.5,4.2,29.87,West,270,0.0,0.0,31,0.00,,,0.00,LWC V2.10 B1813,2013-01-20 03:34:00,
2013-01-19 20:39:00,31.3,4.1,29.88,West,270,0.0,0.0,31,0.00,,,0.00,LWC V2.10 B1813,2013-01-20 03:39:00,
2013-01-19 20:44:00,31.3,4.1,29.87,West,270,0.0,0.0,31,0.00,,,0.00,LWC V2.10 B1813,2013-01-20 03:44:00,
2013-01-19 20:49:00,31.3,4.7,29.87,West,270,0.0,0.0,32,0.00,,,0.00,LWC V2.10 B1813,2013-01-20 03:49:00,
2013-01-19 20:54:00,30.7,4.4,29.87,West,270,0.0,0.0,32,0.00,,,0.00,LWC V2.10 B1813,2013-01-20 03:54:00,
2013-01-19 20:59:00,30.4,3.9,29.87,WSW,247,0.0,0.0,32,0.00,,,0.00,LWC V2.10 B1813,2013-01-20 03:59:00,
2013-01-19 21:04:00,30.4,3.9,29.88,WSW,247,0.0,0.0,32,0.00,,,0.00,LWC V2.10 B1813,2013-01-20 04:04:00,
2013-01-19 21:09:00,30.0,3.6,29.87,WSW,247,0.0,0.0,32,0.00,,,0.00,LWC V2.10 B1813,2013-01-20 04:09:00,
2013-01-19 21:14:00,30.0,4.2,29.87,WSW,247,0.0,0.0,33,0.00,,,0.00,LWC V2.10 B1813,2013-01-20 04:14:00,
2013-01-19 21:19:00,29.5,3.7,29.87,WSW,247,0.0,0.0,33,0.00,,,0.00,LWC V2.10 B1813,2013-01-20 04:19:00,
2013-01-19 21:24:00,29.1,3.4,29.87,SW,225,0.0,0.0,33,0.00,,,0.00,LWC V2.10 B1813,2013-01-20 04:24:00,
2013-01-19 21:29:00,29.1,3.4,29.87,SSW,202,6.3,6.3,33,0.00,,,0.00,LWC V2.10 B1813,2013-01-20 04:29:00,
2013-01-19 21:34:00,29.1,3.4,29.87,SSW,202,0.0,0.0,33,0.00,,,0.00,LWC V2.10 B1813,2013-01-20 04:34:00,
2013-01-19 21:39:00,28.9,3.4,29.87,SSW,202,0.0,0.0,33,0.00,,,0.00,LWC V2.10 B1813,2013-01-20 04:39:00,
2013-01-19 21:44:00,28.8,3.7,29.87,SW,225,0.0,0.0,34,0.00,,,0.00,LWC V2.10 B1813,2013-01-20 04:44:00,
2013-01-19 21:49:00,29.1,4.0,29.87,SSW,202,0.0,0.0,34,0.00,,,0.00,LWC V2.10 B1813,2013-01-20 04:49:00,
2013-01-19 21:54:00,29.7,4.5,29.87,West,270,0.0,0.0,34,0.00,,,0.00,LWC V2.10 B1813,2013-01-20 04:54:00,
2013-01-19 21:59:00,29.7,4.5,29.87,SW,225,0.0,0.0,34,0.00,,,0.00,LWC V2.10 B1813,2013-01-20 04:59:00,
2013-01-19 22:01:00,29.7,4.5,29.88,SW,225,0.0,0.0,34,0.00,,,0.00,LWC V2.10 B1813,2013-01-20 05:01:00,
2013-01-19 22:06:00,29.7,4.5,29.87,SW,225,0.0,0.0,34,0.00,,,0.00,LWC V2.10 B1813,2013-01-20 05:06:00,
2013-01-19 22:11:00,29.3,4.2,29.88,SW,225,0.0,0.0,34,0.00,,,0.00,LWC V2.10 B1813,2013-01-20 05:11:00,
2013-01-19 22:16:00,28.9,3.9,29.87,SW,225,0.0,0.0,34,0.00,,,0.00,LWC V2.10 B1813,2013-01-20 05:16:00,
2013-01-19 22:21:00,28.6,4.2,29.87,SW,225,2.7,2.7,35,0.00,,,0.00,LWC V2.10 B1813,2013-01-20 05:21:00,
2013-01-19 22:26:00,28.6,4.3,29.87,NE,45,0.0,0.0,35,0.00,,,0.00,LWC V2.10 B1813,2013-01-20 05:26:00,
2013-01-19 22:31:00,28.8,4.3,29.87,SSE,157,0.0,0.0,35,0.00,,,0.00,LWC V2.10 B1813,2013-01-20 05:31:00,
2013-01-19 22:36:00,28.2,3.8,29.87,South,180,0.0,0.0,35,0.00,,,0.00,LWC V2.10 B1813,2013-01-20 05:36:00,
2013-01-19 22:41:00,28.2,3.8,29.87,SSW,202,0.0,0.0,35,0.00,,,0.00,LWC V2.10 B1813,2013-01-20 05:41:00,
2013-01-19 22:46:00,28.2,3.8,29.88,SSW,202,0.0,0.0,35,0.00,,,0.00,LWC V2.10 B1813,2013-01-20 05:46:00,
2013-01-19 22:51:00,28.2,3.8,29.88,SSW,202,0.0,0.0,35,0.00,,,0.00,LWC V2.10 B1813,2013-01-20 05:51:00,
2013-01-19 22:56:00,28.2,3.8,29.88,West,270,0.0,0.0,35,0.00,,,0.00,LWC V2.10 B1813,2013-01-20 05:56:00,
2013-01-19 23:01:00,28.9,4.5,29.88,West,270,0.0,0.0,35,0.00,,,0.00,LWC V2.10 B1813,2013-01-20 06:01:00,
2013-01-19 23:03:00,28.8,4.3,29.88,West,270,0.0,0.0,35,0.00,,,0.00,LWC V2.10 B1813,2013-01-20 06:03:00,
2013-01-19 23:08:00,28.6,4.2,29.88,SSW,202,0.0,0.0,35,0.00,,,0.00,LWC V2.10 B1813,2013-01-20 06:08:00,
2013-01-19 23:13:00,28.6,4.2,29.88,SSW,202,0.0,0.0,35,0.00,,,0.00,LWC V2.10 B1813,2013-01-20 06:13:00,
2013-01-19 23:18:00,28.2,4.5,29.88,WSW,247,0.0,3.4,36,0.00,,,0.00,LWC V2.10 B1813,2013-01-20 06:18:00,
2013-01-19 23:23:00,28.6,4.8,29.87,West,270,0.0,0.0,36,0.00,,,0.00,LWC V2.10 B1813,2013-01-20 06:23:00,
2013-01-19 23:28:00,28.6,4.8,29.87,West,270,0.0,0.0,36,0.00,,,0.00,LWC V2.10 B1813,2013-01-20 06:28:00,
2013-01-19 23:33:00,29.1,5.3,29.87,North,0,0.0,0.0,36,0.00,,,0.00,LWC V2.10 B1813,2013-01-20 06:33:00,
2013-01-19 23:38:00,29.1,5.3,29.87,North,0,0.0,0.0,36,0.00,,,0.00,LWC V2.10 B1813,2013-01-20 06:38:00,
2013-01-19 23:43:00,28.8,5.6,29.87,WSW,247,0.0,0.0,37,0.00,,,0.00,LWC V2.10 B1813,2013-01-20 06:43:00,
2013-01-19 23:48:00,29.1,5.9,29.87,WNW,292,0.0,0.0,37,0.00,,,0.00,LWC V2.10 B1813,2013-01-20 06:48:00,
2013-01-19 23:53:00,29.1,5.9,29.87,WNW,292,0.0,0.0,37,0.00,,,0.00,LWC V2.10 B1813,2013-01-20 06:53:00,
2013-01-19 23:58:00,29.3,6.1,29.87,WNW,292,0.0,0.0,37,0.00,,,0.00,LWC V2.10 B1813,2013-01-20 06:58:00,